Location: Seattle
(47.6064°N, 122.3308°W)
Time: 08:06:33
(UTC-08:00)

S-56A Canister/Altair - Visible Passes

Search period start: 09 December 2023 00:00
Search period end: 19 December 2023 00:00
Orbit: 640 x 2489 km, 38.8° (Epoch: 08 December)

Date Brightness Start Highest point End Pass type
(mag) Time Alt. Az. Time Alt. Az. Time Alt. Az.
16 Dec 10.7 07:16:48 10° SSW 07:23:00 22° SSE 07:27:47 10° ESE visible
17 Dec 10.8 06:43:17 10° SSW 06:49:47 21° SSE 06:54:48 10° ESE visible
18 Dec 10.8 06:09:48 10° SSW 06:16:32 21° SSE 06:21:47 10° ESE visible
